Showing default

ASTROCAST-0104, 47519

Orbit data source: Space-Track

ASTROCAST-0104, 47519 is a payload satellite owned by Astrocast (CH) in SSO that was launched on Sun, 24 Jan 2021 UTC via an FALCON 9 launch vehicle from the Air Force Eastern Test Range (AFETR). Payload-class satellites include a variety of spacecraft equipped with specific instruments for various scientific and technological missions. These include communications satellites like Starlink; space stations such as the ISS; scientific satellites like the Hubble; Earth observation satellites from companies like Planet Labs, Umbra, and HawkEye 360; GPS; miniature CubeSats for education and research; and military/defense satellites.

Not visible in the next 10 days
Identifier
47519, 2021-006DK
Orbit
SSO
Country
Flag of UnknownUnknown / SWTZ
Related business
Manufacturer
Astrocast
Mission
Operational Commercial Communications
Bus & Motor
CUBESAT 3U, Unknown motor
Mass
5 kg wet, 5 kg dry
Launch date (UTC)
2021-01-24 (5 years ago)
Launch vehicle
FALCON 9
Launch site
Air Force Eastern Test Range (AFETR)
Object type
Payload
Rocket body
Debris
Shape & HBR
Box, Unknown HBR
Radar Cross Section
0.035 m², Medium (>0.1 m² and < 1m²)

Expand to show TLE details & history
Last TLE update: 1 day ago

TLE from 1 day ago
0 ASTROCAST-0104
1 47519U 21006DK  25301.12633175  .00255050  00000-0  20022-2 0  9999
2 47519  97.2716   0.2862 0003857 228.3471 131.7462 15.70758899264799
Epoch: 2025-10-28T03:01Z
TLE epoch observation values (Epoch: 2025-10-28T03:01:55.063Z)
Latitude
-0.00001°
Longitude
-81.91153°
Altitude
361.62 km
Speed
7.691 km/s
True Right ascension
00h 01m 08s
True Declination
0° 00' 00"
Sunlit
Object was in full shadow at epoch
Visualization orbit readout
Latitude
Unknown
Longitude
Unknown
Altitude
Unknown
Speed
Unknown
Apparent Right ascension
Unknown
Apparent Declination
Unknown
Sunlit
N/A
Visualization observer readout
Local Sidereal Time
09:27:05
Azimuth
Unknown
Elevation
Unknown
Doppler factor
Unknown
Orbital elements
Apogee altitude
356.216 km
Perigee altitude
351.023 km
Semi-major axis
6,731.757 km
Eccentricity
0.00039
Inclination
97.2716°
RAAN
0.2862°
Arg. of periapsis
228.3471°
True anomaly
131.77917°
Mean anomaly
131.7462°
Eccentric anomaly
131.76268°
Mean motion
3.92962 °/min
Orbital period
91.61 mins
BSTAR
0.0020022
Loading maneuver chart data...
Computing Atmospheric mass density...

Documentation

Showing up to 5 results
|